www.pogodaiklimat.ru

Погода и климат >> Архив погоды >> Сенегал >> Подор


ПОГОДА в Подоре

  • Прогноз погоды в Подоре
  • Монитор погоды в Подоре

АРХИВ ПОГОДЫ в Подоре

Время (UTC), дата Ветер
(напр.,м/с)
 
Видим.   Явления Облачность Т
(С)
Тd
(С)
f
(%)
Тe
(С)
Тes
(С)
Комфортность P
(гПа)
Po
(гПа)
Тmin
(С)
Tmax
(С)
R
(мм)
R24
(мм)
S
(см)
03 16.09 ЮЗ 1 10 км ясно +30.0 +23.5 68 +41 +41 опасность
перегрева
1010.9 1010.1
06 16.09 ЮЗ 1 10 км ясно +29.4 +23.4 70 +40 +40 очень
душно
1010.8 1010.0 +28.5
09 16.09 ЮЗ 1 10 км 6/6 330 м
[St Ac trans]
+30.4 +24.1 69 +42 +44 опасность
перегрева
1012.0 1011.2
12 16.09 З 1 10 км 8/8 400 м
[Cu med, cong Ac trans]
+35.5 +25.9 58 +51 +56 опасность
перегрева
1012.7 1011.9
15 16.09 З 2 10 км 1/1 400 м
[Sc Ac trans]
+38.0 +23.3 43 +48 +62 опасность
перегрева
1008.5 1007.7
18 16.09 ЮЗ 2 10 км 3/0
[Ci sp]
+36.6 +23.3 47 +47 +48 опасность
перегрева
1008.2 1007.4 +40.5
21 16.09 ЮЗ 3 10 км ясно +29.2 +22.3 66 +38 +38 очень
душно
1011.3 1010.5
00 17.09 ЮЗ 2 10 км 4/0
[Ci sp]
+27.0 +21.8 73 +35 +35 очень
душно
1011.5 1010.7
03 17.09 ЮЗ 2 10 км ясно +26.4 +21.6 75 +34 +34 очень
душно
1010.3 1009.5
06 17.09 ЮЗ 2 10 км 6/0
[Ac cast]
+26.3 +21.7 76 +34 +34 очень
душно
1011.7 1010.9 +25.5
09 17.09 ЮЗ 1 10 км ясно +29.0 +22.4 68 +38 +44 очень
душно
1010.9 1010.1
12 17.09 ЮЗ 1 10 км ясно +34.5 +23.9 54 +46 +68 опасность
перегрева
1010.9 1010.1
15 17.09 ЮЗ 1 10 км ясно +37.5 +23.4 45 +48 +66 опасность
перегрева
1008.7 1007.9
18 17.09 ЮЗ 1 10 км ясно +37.2 +23.3 45 +47 +49 опасность
перегрева
1007.9 1007.1 +38.7
21 17.09 ЮЗ 2 10 км ясно +33.0 +23.8 59 +45 +45 опасность
перегрева
1009.5 1008.7
00 18.09 ЮЗ 2 10 км ясно +30.0 +23.1 67 +40 +40 очень
душно
1010.2 1009.4
03 18.09 ЮЗ 2 10 км 3/0
[Ac trans]
+28.5 +23.5 74 +39 +39 очень
душно
1009.7 1008.9
06 18.09 ЮЗ 1 10 км 1/0
[Ac trans]
+28.0 +23.7 77 +38 +38 очень
душно
1010.2 1009.4 +27.5
09 18.09 ЮЗ 1 10 км 4/4 330 м
[St]
+29.5 +23.9 72 +41 +44 опасность
перегрева
1010.8 1010.0
12 18.09 ЮЗ 1 10 км ясно +35.0 +23.3 51 +46 +68 опасность
перегрева
1011.0 1010.2
15 18.09 ЮЗ 1 10 км ясно +39.0 +22.1 38 +47 +65 опасность
перегрева
1008.5 1007.7
18 18.09 ЮЗ 1 10 км ясно +37.5 +22.2 41 +46 +47 опасность
перегрева
1008.1 1007.3 +39.5
21 18.09 ЮЗ 1 10 км ясно +32.6 +21.5 52 +41 +41 опасность
перегрева
1009.7 1008.9
00 19.09 ЮЗ 1 10 км зарница 4/3 900 м
[Cb calv Ac trans]
+30.0 +21.1 59 +38 +38 очень
душно
1011.8 1011.0
03 19.09 штиль 0 10 км 4/0
[Ac trans]
+28.0 +21.3 67 +35 +35 очень
душно
1011.2 1010.4
06 19.09 ЮЗ 1 10 км 8/0
[Ac trans]
+28.4 +21.6 67 +36 +36 очень
душно
1009.4 1008.6 +27.0
09 19.09 штиль 0 10 км 8/0
[Ac cast]
+29.5 +22.2 65 +38 +41 очень
душно
1011.4 1010.6
12 19.09 ЮЗ 1 10 км 6/0
[Ac trans]
+33.5 +23.1 55 +44 +58 опасность
перегрева
1012.0 1011.2
15 19.09 штиль 0 10 км 5/0
[Ac trans]
+38.5 +21.3 37 +45 +60 опасность
перегрева
1009.5 1008.7
18 19.09 штиль 0 10 км 6/0
[Ac trans Ci fib]
+36.6 +23.3 47 +47 +48 опасность
перегрева
1008.8 1008.0 +39.0
21 19.09 штиль 0 10 км зарница 4/3 900 м
[Cb calv Ci sp]
+34.1 +23.3 53 +44 +44 опасность
перегрева
1010.4 1009.6
00 20.09 З 1 10 км 6/0
[Ac trans]
+31.6 +24.6 66 +44 +44 опасность
перегрева
1012.1 1011.3
03 20.09 ЮЗ 1 10 км 6/0
[Ac trans]
+30.0 +24.3 72 +42 +42 опасность
перегрева
1011.3 1010.5
06 20.09 штиль 0 10 км 6/0
[Ac cast]
+29.0 +24.8 78 +41 +41 опасность
перегрева
1011.5 1010.7 +28.5
09 20.09 штиль 0 10 км 3/0
[Ac trans]
+31.0 +25.7 73 +46 +51 опасность
перегрева
1012.4 1011.6
12 20.09 штиль 0 10 км 3/0
[Ac trans]
+37.5 +23.4 45 +48 +69 опасность
перегрева
1012.6 1011.8
15 20.09 штиль 0 10 км 6/1 400 м
[Sc Ac trans]
+40.5 +22.8 37 +50 +62 опасность
перегрева
1009.7 1008.9
18 20.09 ЮЗ 1 10 км 4/3 400 м
[Cu med, cong Ac trans]
+39.8 +22.5 37 +48 +49 опасность
перегрева
1008.3 1007.5 +41.0
21 20.09 ЮЗ 1 10 км зарница 4/4 900 м
[Cb calv]
+35.0 +22.8 49 +45 +45 опасность
перегрева
1010.2 1009.4
00 21.09 ЮЗ 4 7000 м гроза, ливневой дождь 9/4 900 м
[Cb cap Ac As]
+24.0 +22.5 91 +31 +31 очень
душно
1014.2 1013.4 8
03 21.09 ЮЗ 2 8000 м слаб. дождь {гроза} 9/0
[Ac As]
+23.8 +22.6 93 +31 +31 очень
душно
1013.3 1012.5
06 21.09 ЮЗ 1 10 км в посл. час дождь {гроза} 8/0
[Ac trans]
+24.3 +22.4 89 +32 +32 очень
душно
1013.2 1012.4 +23.3 16
09 21.09 ЮЗ 1 10 км 8/0
[Ac trans Ci sp]
+25.7 +22.5 83 +34 +37 очень
душно
1013.7 1012.9
12 21.09 штиль 0 10 км 8/0
[Ac trans]
+30.7 +22.6 62 +40 +53 опасность
солнечного
удара
1013.7 1012.9
15 21.09 штиль 0 10 км 8/0
[Ac trans]
+36.6 +23.8 48 +48 +58 опасность
перегрева
1010.8 1010.0
18 21.09 СЗ 1 10 км 5/0
[Ac trans Ci fib]
+35.5 +23.5 50 +46 +47 опасность
перегрева
1010.2 1009.4 +37.0
21 21.09 С 1 10 км ясно +32.0 +23.4 60 +43 +43 опасность
перегрева
1010.7 1009.9
00 22.09 ЮЗ 1 10 км ясно +30.2 +23.0 65 +40 +40 очень
душно
1012.1 1011.3
03 22.09 штиль 0 10 км ясно +28.5 +22.7 71 +38 +38 очень
душно
1011.3 1010.5
06 22.09 штиль 0 10 км ясно +27.5 +23.2 77 +37 +37 очень
душно
1011.3 1010.5 +26.8
09 22.09 Ю 1 10 км ясно +29.0 +23.7 73 +40 +46 очень
душно
1013.2 1012.4
12 22.09 В 1 10 км 3/3 400 м
[Cu med, cong]
+35.5 +25.1 55 +49 +64 опасность
перегрева
1013.0 1012.2
15 22.09 штиль 0 10 км 4/4 400 м
[Cu med, cong]
+37.5 +25.2 50 +51 +63 опасность
перегрева
1010.3 1009.5
18 22.09 штиль 0 10 км ясно +36.7 +24.6 50 +49 +51 опасность
перегрева
1009.5 1008.7 +38.5
21 22.09 штиль 0 10 км ясно +32.2 +25.5 68 +47 +47 опасность
перегрева
1011.4 1010.6

 

Местоположение метеостанции Подор (Сенегал): широта 16.65 долгота -14.96 высота над уровнем моря 7 м.

В архиве по умолчанию представлена погода в Подоре за последнюю неделю. Архивные данные за месяц целиком и за предыдущие месяцы, начиная с января 2011 года, Вы можете получить, выбрав интересующий диапазон дат из раскрывающегося списка и нажав кнопку "Ввод!".


*Определитесь, кто Вы:
робот инопланетянин человек

Внимание! Время в таблицах - всемирное. Для получения местного времени необходимо прибавить поправку, которая равна 0 ч.

Смотрите также архив погоды в соседних городах и на ближайших метеорологических станциях:

Погода в Росо (Мавритания) (92 км)
Погода в Бутилимите (Мавритания) (102 км)
Погода в Лингере (Сенегал) (142 км)
Погода в Каэди (Мавритания) (164 км)
Погода в Сент-Луисе (Сенегал) (172 км)
Погода в Нуакшоте (Мавритания) (192 км)
Погода в Матаме (Сенегал) (214 км)
Погода в Диурбеле (Сенегал) (261 км)
Погода в Каолаке (Сенегал) (304 км)
Погода в Кауере (Гамбия) (329 км)

Пояснения к столбцам:

Ветер - указаны скорость ветра в м/с - средняя за 10 мин, порывы в срок и между сроками (в фигурных скобках) и направление, откуда дует ветер: С - северный, СВ - северо-восточный, В - восточный, ЮВ - юго-восточный, Ю - южный, ЮЗ - юго-западный, З - западный, СЗ - северо-западный.
Видимость - горизонтальная дальность видимости в метрах или километрах. При видимости от 1 до 10 км при отсутствии осадков обычно наблюдается дымка, при ухудшении видимости до 1 км и менее - туман. В сухую погоду видимость может ухудшаться дымом, пылью или мглою.
Явления - указаны атмосферные явления, наблюдавшиеся в срок или в последний час перед сроком; фигурными скобками обозначены явления, наблюдавшиеся между сроками (за 1-3 часа до срока); квадратными скобками обозначены град или гололедные отложения с указанием их диаметра в мм.
Облачность - указаны через наклонную черту общая и нижняя облачность в баллах и высота нижней границы облаков в метрах; квадратными скобками обозначены формы облаков: Ci - перистые, Cs - перисто-слоистые, Cc - перисто-кучевые, Ac - высококучевые, As - высокослоистые, Sc - слоисто-кучевые, Ns - слоисто-дождевые, Cu - кучевые, Cb - кучево-дождевые. Подробнее классификацию облаков см. в Атласе облаков (PDF).
T - Температура воздуха - температура, измеренная на высоте 2 м над землей.
Td - Температура точки росы - температура, при понижении до которой содержащийся в воздухе водяной пар достигнет насыщения.
f - Относительная влажность воздуха - влажноcть воздуха, измеренная на высоте 2 м над землей.
Te - Эффективная температура - температура, которую ощущает одетый по сезону человек в тени. Характеристика душности погоды. При расчете учитывается влияние влажности воздуха и скорости ветра на теплоощущения человека.
Tes - Эффективная температура на солнце - температура, которую ощущает человек, с поправкой на солнечный нагрев. Характеристика знойности погоды. Зависит от высоты солнца над горизонтом, облачности и скорости ветра. Ночью, в пасмурную погоду, а также при ветре 12 м/с и более поправка равна нулю.
P - Атмосферное давление - приведенное к уровню моря атмосферное давление.
Po - Атмосферное давление - измеренное на уровне метеостанции атмосферное давление.
Tmin - Минимальная температура - минимум температуры воздуха на высоте 2 м над землей.
Tmax - Максимальная температура - максимум температуры воздуха на высоте 2 м над землей.
R - Количество осадков - Количество выпавших осадков за период времени, мм. При наведении курсора мыши на число - период времени, за который выпало указанное количество осадков.
R24 - Количество осадков - Количество выпавших осадков за 24 часа, мм.
S - Снежный покров - Высота снежного покрова, см. При наведении курсора мыши на число - состояние снежного покрова и степень покрытия местности в баллах.